Regional Weather Roundup
Issued by NWS

Home | Current Version | Previous Version | Graphics & Text | Print | Product List | Glossary On
Versions: 1 2 3 4 5 6 7 8 9 10 11 12 13 14 15 16 17 18 19 20 21 22 23 24 25 26 27 28 29 30 31 32 33 34 35 36 37 38 39 40 41 42 43 44 45 46 47 48 49 50
371
ASUS43 KTOP 270108
RWRKS

WEATHER ROUNDUP FOR KANSAS
NATIONAL WEATHER SERVICE GOODLAND KS
800 PM CDT THU APR 26 2018

NOTE:  "FAIR" INDICATES FEW OR NO CLOUDS BELOW 12,000 FEET WITH NO
SIGNIFICANT WEATHER AND/OR OBSTRUCTIONS TO VISIBILITY.

KSZ001>006-013>018-027>032-041>047-270200-
NORTHWEST KANSAS

CITY           SKY/WX    TMP DP  RH WIND       PRES   REMARKS
GOODLAND       CLEAR     57  28  33 N13       30.17S
HAYS           CLEAR     62  31  31 N16       30.09R
HILL CITY      CLEAR     60  30  32 N13       30.12S
RUSSELL        CLEAR     63  32  31 N17G28    30.06R
$$

KSZ061>065-074>080-084>089-270200-
SOUTHWEST KANSAS

CITY           SKY/WX    TMP DP  RH WIND       PRES   REMARKS
DODGE CITY     CLEAR     60  36  40 N14       30.09R
ELKHART        CLEAR     62  34  34 N21       30.16R
GARDEN CITY    CLOUDY    60  35  39 N14       30.12R
GREAT BEND     CLOUDY    62  42  47 N13       30.06R
LIBERAL        CLEAR     60  37  42 N17G25    30.12R
PRATT          CLEAR     62  38  40 N16       30.04R
$$

KSZ066>073-081>083-090>101-270200-
SOUTHEAST KANSAS

CITY           SKY/WX    TMP DP  RH WIND       PRES   REMARKS
CHANUTE        CLOUDY    62  49  62 SW3       29.97F
COFFEYVILLE    CLOUDY    60  52  74 SE6       29.97F
HUTCHINSON     MOCLDY    66  43  43 N17G26    30.01R
MEDICINE LODGE   N/A     65  44  46 CALM      30.01S
NEWTON         CLEAR     63  44  50 NW3       30.01R
PARSONS        CLOUDY    61  51  70 S3        29.98F
WICHITA INTL   PTCLDY    65  43  44 NW6       29.99S
WICHITA JABRA  PTCLDY    62  44  51 N6        29.99S
WICHITA MCCONL PTCLDY    65  42  43 N5        29.99S
WINFIELD       PTCLDY    61  49  64 NW8       30.00S
$$

KSZ007>012-019>026-033>040-048>060-102>105-270200-
NORTHEAST KANSAS

CITY           SKY/WX    TMP DP  RH WIND       PRES   REMARKS
CONCORDIA      CLEAR     62  32  32 N12       30.04R
EMPORIA        CLEAR     64  41  42 CALM      29.97S
LAWRENCE       CLEAR     62  44  51 NW5       29.95S
MANHATTAN      CLEAR     66  42  41 N5        29.98R
MARYSVILLE     CLEAR     61  37  41 N17       30.00R
OLATHE IND     CLEAR     60  43  53 NW5       29.96S
OLATHE EXE     CLEAR     63  41  44 NW7       29.95S
SALINA         CLEAR     64  43  46 N10       30.01R
TOPEKA BILLARD CLEAR     65  44  46 W5        29.95S
TOPEKA FORBES  CLEAR     62  45  53 SW7       29.95S
$$




USA.gov is the U.S. government's official web portal to all federal, state and local government web resources and services.